This demonstration page uses our WeatherBlox Daily Observations layout. Learn more.

39.92423, -83.80882

Hourly Observations for April 30, 2015

Temp ( °F °C ) Dew Point ( °F °C ) Humidity (%) Winds ( mph kmh ) Pressure ( in mb ) Visibility ( mi km ) Precip ( " mm )
12:56 am 00:56 Cloudy 57 13.8 43 6.1 60 60 NW 8 13 29.78 1008 7 11.26538 0 0
1:56 am 01:56 Mostly Cloudy 55 12.7 43 6.1 64 64 NW 10 17 29.78 1008 7 11.26538 0 0
2:56 am 02:56 Mostly Clear 54 12.2 43 6.1 67 67 N 10 17 29.75 1008 7 11.26538 0 0
3:56 am 03:56 Mostly Cloudy 52 11.1 44 6.6 74 74 NNW 7 11 29.75 1008 7 11.26538 0 0
4:56 am 04:56 Mostly Cloudy with Rain 50 10 46 7.7 86 86 N 13 20 29.75 1007 3 4.82802 0 0.0254
5:11 am 05:11 Cloudy with Light Rain 48 9 46 8 94 94 N 14 22 29.77 1008 4 6.43736 0.02 0.508
5:56 am 05:56 Mostly Cloudy with Mist and Fog 48 8.8 44 6.6 86 86 NNE 9 15 29.77 1008 6 9.65604 0.02 0.508
6:56 am 06:56 Mostly Cloudy with Mist and Fog 46 7.7 45 7.2 97 97 NNE 5 7 29.79 1009 5 8.0467 0 0
7:56 am 07:56 Partly Cloudy with Mist and Fog 45 7.2 43 6.1 93 93 N 8 13 29.8 1009 6 9.65604 0 0
8:56 am 08:56 Hazy 49 9.4 44 6.6 83 83 NNW 12 19 29.82 1010 6 9.65604 0 0
9:56 am 09:56 Hazy 52 11.1 45 7.2 77 77 N 6 9 29.82 1010 6 9.65604 0 0
10:56 am 10:56 Hazy 55 12.7 45 7.2 69 69 N 8 13 29.83 1010 6 9.65604 0 0
11:26 am 11:26 Mostly Cloudy with Haze 55 13 45 7 67 67 N 9 15 29.83 1010 6 9.65604 0 0
11:56 am 11:56 Hazy 58 14.4 44 6.6 60 60 NNE 14 22 29.83 1010 6 9.65604 0 0
12:56 pm 12:56 Hazy 59 15 42 5.5 53 53 N 13 20 29.83 1010 6 9.65604 0 0
1:56 pm 13:56 Hazy 62 16.6 40 4.4 45 45 NNE 10 17 29.82 1010 6 9.65604 0 0
2:56 pm 14:56 Sunny 62 16.6 37 2.7 40 40 N 14 22 29.82 1010 7 11.26538 0 0
3:56 pm 15:56 Hazy 62 16.6 41 5 46 46 NNE 15 24 29.83 1010 6 9.65604 0 0
4:56 pm 16:56 Mostly Cloudy with Light Rain 57 13.8 43 6.1 60 60 N 20 31 29.85 1011 5 8.0467 0 0.0254
5:07 pm 17:07 Mostly Cloudy with Light Rain 54 12 45 7 72 72 NNW 15 24 29.85 1011 4 6.43736 0 0.0254
5:56 pm 17:56 Hazy 55 12.7 43 6.1 64 64 WNW 8 13 29.87 1011 6 9.65604 0.01 0.254
6:27 pm 18:27 Cloudy with Haze 57 14 43 6 59 59 N 16 26 29.88 1012 6 9.65604 0 0
6:56 pm 18:56 Hazy 57 13.8 42 5.5 58 58 N 14 22 29.88 1012 6 9.65604 0 0
7:56 pm 19:56 Hazy 53 11.6 43 6.1 69 69 NNE 13 20 29.91 1013 6 9.65604 0 0
8:56 pm 20:56 Clear 48 8.8 40 4.4 74 74 N 7 11 29.94 1014 8 12.87472 0 0
9:56 pm 21:56 Clear 47 8.3 41 5 80 80 N 7 11 29.96 1015 7 11.26538 0 0
10:56 pm 22:56 Mostly Cloudy 48 8.8 42 5.5 80 80 N 8 13 29.98 1015 7 11.26538 0 0
11:13 pm 23:13 Cloudy 48 9 43 6 82 82 N 7 11 30 1016 7 11.26538 0 0
11:56 pm 23:56 Cloudy 49 9.4 43 6.1 80 80 N 8 13 29.99 1016 7 11.26538 0 0

Powered by AerisWeather